Regional Weather Roundup
Issued by NWS Midland/Odessa, TX

Current Version | Previous Version | Text Only | Print | Product List | Glossary On
Versions: 1 2 3 4 5 6 7 8 9 10 11 12 13 14 15 16 17 18 19 20 21 22 23 24 25 26 27 28 29 30 31 32 33 34 35 36 37 38 39 40 41 42 43 44 45 46 47 48 49 50
000
ASUS44 KMAF 232110
RWRMAF
MIDLAND AREA WEATHER ROUNDUP
NATIONAL WEATHER SERVICE MIDLAND TX
400 PM CDT FRI JUN 23 2017

...IN SOUTHWEST TEXAS AND SOUTHEAST NEW MEXICO...

CITY           SKY/WX    TMP DP  RH WIND       PRES   REMARKS
ALPINE         SUNNY    100  44  14 S5        29.99F
ANDREWS          N/A    103  49  16 SE10G21   29.84F HX 100
ARTESIA        SUNNY    102  55  21 CALM      29.88F HX 101
BIG SPRING     SUNNY    105  53  17 E12G17    29.85F HX 103
CARLSBAD       PTSUNNY  104  53  18 MISG      29.83F HX 102
DRYDEN           N/A    105  56  19 SE14      29.78F HX 104
FORT STOCKTON  SUNNY    105  50  15 SE10G20   29.81F HX 102
GUAD PASS      SUNNY     97  46  17 E17G23    30.04F
HOBBS          PTSUNNY  100  46  16 NE17G26   29.88F
MARFA          TSTM      93  51  23 SE12G23   29.99F
MIDLAND AIRPK  MOSUNNY  107  46  12 SE13      29.83F HX 103
MIDLAND INTL   SUNNY    107  48  14 S10       29.82F HX 103
ODESSA         SUNNY    105  44  12 SE10G18   29.84F HX 100
PECOS          SUNNY    109  45  12 CALM      29.76F HX 104
PRESIDIO       FAIR     107  45  12 NE6       29.79F HX 102
SEMINOLE       PTSUNNY  101  48  16 SE10G16   29.87F
SNYDER         MOSUNNY  101  59  24 NE7       29.85F HX 101
WINK           SUNNY    108  44  11 VRB3      29.77F HX 103
$$
...OTHER STATIONS IN TEXAS...

CITY           SKY/WX    TMP DP  RH WIND       PRES   REMARKS
ABILENE        SUNNY    101  60  25 SE3       29.82F HX 101
AMARILLO       MOSUNNY   85  58  39 NE21G31   30.08F
AUSTIN         PTSUNNY  102  71  36 S12G20    29.77F HX 111
BROWNSVILLE    MOSUNNY   94  76  55 SE20G26   29.77S HX 106
CORPUS CHRISTI PTSUNNY   94  80  64 SE15G21   29.78F HX 113
DALLAS FTW     MOSUNNY   99  74  44 NE8       29.79S HX 110
DEL RIO        SUNNY    103  65  29 SE13      29.72F HX 106
EL PASO        MOSUNNY  109  24   5 N15       29.86F HX 100
HOUSTON INT    PTSUNNY   96  74  48 SE6       29.82F HX 107
LUBBOCK        PTSUNNY   93  60  33 NE24G33   29.95S
SAN ANGELO     MOSUNNY  107  54  17 VRB5      29.79F HX 105
SAN ANTONIO    MOSUNNY  100  70  37 SE14      29.78F HX 107
WACO           SUNNY     99  73  43 S8        29.78F HX 109
WICHITA FALLS  NOT AVBL
$$
...OTHER LOCATIONS IN NEW MEXICO...

CITY           SKY/WX    TMP DP  RH WIND       PRES   REMARKS
ALAMOGORDO     SUNNY    106  25   6 N17G24    29.90S
ALBUQUERQUE    PTSUNNY   98  17   5 W13G20    30.04F
CANNON AFB     SUNNY     79  60  51 NE23G33   30.10F
CLOVIS         SUNNY     80  60  50 NE22G36   30.10F
HOLLOMAN AFB   MOSUNNY  108  24   5 NW13G23   29.90S
ROSWELL        SUNNY    102  58  23 NE29G37   29.90F HX 102
RUIDOSO        CLOUDY    86  48  26 E21G26    30.22S
SANTA FE       MOSUNNY   90  43  19 MISG      30.12F
TRUTH OR CONSE MOSUNNY  103  24   6 E15G24    29.97F
TUCUMCARI      MOSUNNY   83  57  41 E20G30    30.10F
$$



USA.gov is the U.S. government's official web portal to all federal, state and local government web resources and services.